Starlink 32473

operational
NORAD ID: 62049 Int'l Des: 2024-216 Owner: SPXS Country: US Constellation: starlink
LEOCIRCULAR

Über Starlink 32473

Beschreibung wird geladen...

Live-Position

3D-Globus wird geladen...

Nächste Überflüge

Höhenverlauf

Altitude vs Time

uPlot chart will show altitude changes over time

Zweizeiliger Elementsatz

1 62049U 24216T 25260.08055228 .00017690 00000-0 65182-3 0 9999
2 62049 43.0012 156.8357 0001452 300.3102 59.7606 15.27530056 46163
Epoch: 17. Sept. 2025 • Age: 9 hours

Aktueller Status

Höhe 484.0 km
Geschwindigkeit 7.62 km/s
Subsatellitenpunkt -9.76°S, 21.88°W
Startdatum 21. Nov. 2024
Alter 0.8 years
Typ internet

Technische Details

Klassifizierung Payload
Masse 730.00 kg
Trockenmasse 700.00 kg
Gesamtmasse 730.00 kg
Länge 0.30 m
Durchmesser 4.10 m
Spannweite 29.00 m
Form Box + pan
Hersteller SPXS
Bus-Typ Starlink V2M
Phasenstatus In Orbit
Besitzer/Staat SPXS/US

Große Konstellationen

Loading constellations...